{"data":{"norad_id":63408,"intl_designator":"2025-065K","name":"STARLINK-33692","alt_names":[],"object_type":"PAYLOAD","status":"ACTIVE","operator":null,"country":"US","launch_date":"2025-03-31","launch_site_code":"AFETR","launch_vehicle":null,"mission":null,"orbit_class":"UNKNOWN","rcs_meters":null,"size_class":null,"mass_kg":null,"dimensions":null,"purposes":["comms"],"wikipedia_slug":null,"has_3d_model":false,"image_url":null,"decayed_at":null,"tle_current":{"epoch":"2026-05-25T02:43:12.785088Z","epoch_age_seconds":61311,"freshness":"FRESH","line1":"1 63408U 25065K   26145.11334242  .00022451  00000+0  82258-3 0  9998","line2":"2 63408  43.0013  39.3005 0001656 263.0063  97.0600 15.27592162 64486","mean_motion":15.27592162,"eccentricity":0.0001656,"inclination_deg":43.0013,"raan_deg":39.3005,"arg_perigee_deg":263.0063,"mean_anomaly_deg":97.06,"bstar":0.00082258,"rev_number":6448,"period_min":94.265998204303,"perigee_km":481.87647249119,"apogee_km":484.14888526484,"semimajor_km":6861.149678878,"source":"CELESTRAK","updated_at":"2026-05-25T13:38:19.970037Z"}}}